Regional Weather Roundup
Issued by NWS

Home | Current Version | Previous Version | Text Only | Print | Product List | Glossary Off
Versions: 1 2 3 4 5 6 7 8 9 10 11 12 13 14 15 16 17 18 19 20 21 22 23 24 25 26 27 28 29 30 31 32 33 34 35 36 37 38 39 40 41 42 43 44 45 46 47 48 49 50

000
ASUS43 KLOT 030902
RWRIL

ILLINOIS REGIONAL WEATHER ROUNDUP
NATIONAL WEATHER SERVICE CHICAGO/ROMEOVILLE IL
400 AM CDT SUN MAY 03 2015

NOTE: "FAIR" INDICATES FEW OR NO CLOUDS BELOW 12,000 FEET WITH NO
SIGNIFICANT WEATHER AND/OR OBSTRUCTIONS TO VISIBILITY.

* THESE STATIONS ARE NOT UNDER NWS QUALITY CONTROL. THEY ALSO MAY NOT
  REPORT WEATHER SUCH AS PRECIPITATION OR FOG.

ILZ001-002-007-009-015-016-024-031000-
NORTHWEST ILLINOIS

CITY           SKY/WX    TMP DP  RH WIND       PRES   REMARKS
MOLINE         MOCLDY    63  45  51 S10       29.92S
STERLING*      MOCLDY    59  45  58 CALM      29.95S
$$

ILZ003-004-008-010-011-017-018-031000-
NORTH CENTRAL ILLINOIS

CITY           SKY/WX    TMP DP  RH WIND       PRES   REMARKS
ROCKFORD       CLOUDY    58  43  57 S5        29.96F
$$

ILZ005-006-012>014-019>023-031000-
NORTHEAST ILLINOIS

CITY           SKY/WX    TMP DP  RH WIND       PRES   REMARKS
CHICAGO-OHARE  CLOUDY    59  42  53 S6        29.96S
CHICAGO-MIDWAY CLOUDY    62  42  47 S6        29.98R
AURORA         CLOUDY    54  44  69 SE5       29.97S
WAUKEGAN       MOCLDY    55  41  59 SW7       29.95S
DUPAGE AIRPORT CLOUDY    55  44  66 S3        29.97S
WHEELING       CLOUDY    56  42  59 S3        29.98S
NORTHERLY ISL    N/A     62  39  42 SW7         N/A
$$

LMZ740>746-031000-
SOUTHERN LAKE MICHIGAN

STATION/POSITION SKY/WX   TEMP    WIND        PRES    VSBY  WAVE
                          AIR SEA DIR/SP/G                  HT/PER
                          (F)     (DEG/KT/KT) (MB)    (MI)  (FT/S)
HARRISON CRIB              64     210/ 18/ 22   N/A
BURNHAM HARBOR             63     210/  4/  8   N/A
CALUMET HARBOR             61     190/  5/  6   N/A
BURNS HARBOR               59     180/ 10/ 12 1015.9S
MICHIGAN CITY              63     170/ 13/ 15   N/A
MICHIGAN CITY 6N           55 51  210/  6/  6   N/A           1
ST. JOSEPH                 54 49  220/  6/  6   N/A           1
$$

ILZ025>027-034>036-040-047-049-050-058-095>099-031000-
WEST-CENTRAL ILLINOIS

CITY           SKY/WX    TMP DP  RH WIND       PRES   REMARKS
QUINCY         PTCLDY    60  46  59 S7        29.94S
$$

ILZ028>032-037-038-041>044-048-051>054-059>061-031000-
CENTRAL ILLINOIS

CITY           SKY/WX    TMP DP  RH WIND       PRES   REMARKS
DECATUR        CLOUDY    63  45  51 S10       30.01S
PEORIA         CLOUDY    62  47  57 S8        29.97F
SPRINGFIELD    CLOUDY    63  46  54 S12       29.99R
TAYLORVILLE    NOT AVBL
$$

ILZ033-039-045-046-055>057-062-063-031000-
EAST-CENTRAL ILLINOIS

CITY           SKY/WX    TMP DP  RH WIND       PRES   REMARKS
CHAMPAIGN      CLOUDY    62  45  53 S12       30.01S
MATTOON        CLOUDY    61  46  57 S7        30.02S
$$

ILZ079-100>102-031000-
SOUTHWEST ILLINOIS

CITY           SKY/WX    TMP DP  RH WIND       PRES   REMARKS
BELLEVILLE     CLOUDY    60  50  69 CALM      30.00S
CAHOKIA*       MOCLDY    62  47  57 SE6       30.00S
$$

ILZ064>066-069>071-074>076-080>082-084>086-088>090-092>094-031000-
SOUTH-CENTRAL ILLINOIS

CITY           SKY/WX    TMP DP  RH WIND       PRES   REMARKS
CARBONDALE     MOCLDY    55  50  83 CALM      30.04S
MT. VERNON     CLOUDY    55  48  76 CALM      30.05S
$$

ILZ067-068-072-073-078-083-087-091-031000-
SOUTHEAST ILLINOIS

CITY           SKY/WX    TMP DP  RH WIND       PRES   REMARKS
LAWRENCEVILLE  CLOUDY    59  51  75 CALM      30.06R
FLORA*         CLOUDY    55  52  88 CALM      30.05S
$$

ABBREVIATIONS USED IN REMARKS
   TC - TEMPERATURE IN CELSIUS
  WCI - WIND CHILL INDEX
   HX - HEAT INDEX
  VSB - VISIBILITY
$$




USA.gov is the U.S. government's official web portal to all federal, state and local government web resources and services.